This is the latest recevied weather packets stored in our database for station/object K7TUS-6. If no packets are shown the sender has not sent any weather packets the latest 10 day(s).
| Time | Temp. | Humidity | Pressure | Rain* | Wind** | Luminosity | Snow |
|---|---|---|---|---|---|---|---|
| 1777894204 | 6.67° C | 19% | 981 hPa | - | - | - | - |
| 1777893904 | 6.67° C | 16% | 980.2 hPa | - | - | - | - |
| 1777893604 | 6.67° C | 18% | 980.6 hPa | - | - | - | - |
| 1777893303 | 6.67° C | 20% | 979.8 hPa | - | - | - | - |
| 1777893002 | 6.67° C | 16% | 979.8 hPa | - | - | - | - |
| 1777892708 | 6.67° C | 18% | 980 hPa | - | - | - | - |
| 1777892407 | 6.67° C | 15% | 980.4 hPa | - | - | - | - |
| 1777892137 | 6.67° C | 15% | 980.1 hPa | - | - | - | - |
| 1777891506 | 6.67° C | 18% | 980.1 hPa | - | - | - | - |
| 1777891205 | 6.67° C | 17% | 980.3 hPa | - | - | - | - |
| 1777890904 | 6.67° C | 19% | 980.1 hPa | - | - | - | - |
| 1777890604 | 6.67° C | 18% | 980.3 hPa | - | - | - | - |
| 1777890003 | 6.67° C | 19% | 980.1 hPa | - | - | - | - |
| 1777889709 | 6.67° C | 18% | 980.3 hPa | - | - | - | - |
| 1777889408 | 6.67° C | 20% | 980.3 hPa | - | - | - | - |
| 1777888807 | 6.67° C | 23% | 979.3 hPa | - | - | - | - |
| 1777888506 | 6.67° C | 21% | 979.5 hPa | - | - | - | - |
| 1777888205 | 6.67° C | 18% | 978.7 hPa | - | - | - | - |
| 1777887904 | 6.67° C | 18% | 979.8 hPa | - | - | - | - |
| 1777887603 | 6.67° C | 17% | 980.1 hPa | - | - | - | - |
| 1777887303 | 6.67° C | 17% | 979.6 hPa | - | - | - | - |
| 1777886408 | 6.67° C | 18% | 979.3 hPa | - | - | - | - |
| 1777886107 | 6.67° C | 20% | 980 hPa | - | - | - | - |
| 1777885807 | 6.67° C | 19% | 979.8 hPa | - | - | - | - |
| 1777885506 | 7.22° C | 19% | 979.7 hPa | - | - | - | - |
* Rain since midnight (hover to see other rain measurements)
** Current wind speed in m/s (hover to see current wind gust speed)